Phnom Penh, Cambodia

3:08 PM +07 on December 11, 2017 (GMT +0700)
Pochentong International

Weather History for VDPP - January, 2013

Change the Weather History Date:

Wednesday, January 9, 2013

  Actual Average Record
Temperature  
Mean Temperature 83 °F -  
Max Temperature 89 °F 87 °F 93 °F (2000)
Min Temperature 77 °F 72 °F 68 °F (2002)
Cooling Degree Days 18    
Growing Degree Days 33 (Base 50)    
Moisture  
Dew Point 70 °F    
Average Humidity 61    
Maximum Humidity 79    
Minimum Humidity 46    
Precipitation  
Precipitation 0.00 in - - ()
Sea Level Pressure  
Sea Level Pressure 29.81 in    
Wind  
Wind Speed 5 mph ()    
Max Wind Speed 13 mph    
Max Gust Speed -    
Visibility 5.9 miles    
Events      
Averages and records for this station are not official NWS values.
T = Trace of Precipitation, MM = Missing Value Source: Averaged Metar Reports

Daily Weather History Graph

Daily Weather History Graph

Search for Another Location

Airport or City:

Trip Planner

Search our weather history database for the weather conditions in past years. The results will help you decide how hot, cold, wet, or windy it might be!

Date:

Astronomy

Jan. 09, 2013 Rise Set
Actual Time 6:22 AM +07 5:52 PM +07
Civil Twilight 6:00 AM +07 6:15 PM +07
Nautical Twilight 5:34 AM +07 6:41 PM +07
Astronomical Twilight 5:07 AM +07 7:07 PM +07
Moon 3:28 AM +07 (1/9) 3:20 PM +07 (1/9)
Length of Visible Light 12h 14m
Length of Day
11h 29m
Waning Crescent, 10% of the Moon is Illuminated
Jan 9
Waning Crescent
Jan 12
New
Jan 19
First Quarter
Jan 27
Full
Feb 3
Last Quarter

Hourly Weather History & Observations

Time (+07) Temp. Heat Index Dew Point Humidity Pressure Visibility Wind Dir Wind Speed Gust Speed Precip Events Conditions
12:00 AM 82.4 °F 86.3 °F 69.8 °F 66% 29.83 in 5.6 mi NNW 3.5 mph - N/A   Scattered Clouds
12:30 AM 80.6 °F 83.9 °F 69.8 °F 70% 29.83 in 5.6 mi North 3.5 mph - N/A   Scattered Clouds
1:00 AM 80.6 °F 83.9 °F 69.8 °F 70% 29.83 in 5.6 mi NNE 3.5 mph - N/A   Scattered Clouds
6:00 AM 80.6 °F 84.6 °F 71.6 °F 74% 29.80 in 5.0 mi NNE 3.5 mph - N/A   Scattered Clouds
6:30 AM 80.6 °F 84.6 °F 71.6 °F 74% 29.80 in 5.0 mi North 3.5 mph - N/A   Scattered Clouds
7:00 AM 79 °F - 74 °F 79% 29.85 in 6 mi Calm Calm - -   Partly Cloudy
7:00 AM 80.6 °F 83.9 °F 69.8 °F 70% 29.83 in 5.0 mi NNE 5.8 mph - N/A   Scattered Clouds
7:30 AM 80.6 °F 83.9 °F 69.8 °F 70% 29.83 in 5.6 mi NNE 6.9 mph - N/A   Scattered Clouds
8:00 AM 82.4 °F 86.3 °F 69.8 °F 66% 29.86 in 5.6 mi NNE 8.1 mph - N/A   Scattered Clouds
8:30 AM 82.4 °F 85.4 °F 68.0 °F 62% 29.86 in 5.6 mi ENE 9.2 mph - N/A   Scattered Clouds
9:00 AM 84.2 °F 87.3 °F 68.0 °F 58% 29.86 in 5.6 mi ENE 10.4 mph - N/A   Scattered Clouds
9:30 AM 84.2 °F 87.3 °F 68.0 °F 58% 29.86 in 6.2 mi NE 10.4 mph - N/A   Scattered Clouds
10:00 AM 84.2 °F 88.4 °F 69.8 °F 62% 29.86 in 6.2 mi NNE 9.2 mph - N/A   Scattered Clouds
10:30 AM 84.2 °F 88.4 °F 69.8 °F 62% 29.86 in 6.2 mi NNE 8.1 mph - N/A   Scattered Clouds
11:00 AM 84.2 °F 87.3 °F 68.0 °F 58% 29.86 in 6.2 mi ENE 12.7 mph - N/A   Scattered Clouds
11:30 AM 86.0 °F 89.4 °F 68.0 °F 55% 29.86 in 6.2 mi NE 10.4 mph - N/A   Scattered Clouds
12:00 PM 87.8 °F 91.4 °F 68.0 °F 52% 29.83 in 6.2 mi NE 11.5 mph - N/A   Scattered Clouds
12:30 PM 87.8 °F 91.4 °F 68.0 °F 52% 29.83 in 6.2 mi NE 9.2 mph - N/A   Scattered Clouds
1:00 PM 89.6 °F 93.4 °F 68.0 °F 49% 29.80 in 6.2 mi NNE 11.5 mph - N/A   Scattered Clouds
1:30 PM 89.6 °F 92.2 °F 66.2 °F 46% 29.77 in 6.2 mi NNE 9.2 mph - N/A   Scattered Clouds
2:00 PM 89.6 °F 93.4 °F 68.0 °F 49% 29.77 in 6.2 mi NE 8.1 mph - N/A   Scattered Clouds
2:30 PM 89.6 °F 92.2 °F 66.2 °F 46% 29.77 in 6.2 mi North 6.9 mph - N/A   Scattered Clouds
3:00 PM 87.8 °F 91.4 °F 68.0 °F 52% 29.74 in 6.2 mi North 5.8 mph - N/A   Scattered Clouds
3:30 PM 87.8 °F 91.4 °F 68.0 °F 52% 29.74 in 6.2 mi North 6.9 mph - N/A   Scattered Clouds
4:00 PM 87.8 °F 91.4 °F 68.0 °F 52% 29.74 in 6.2 mi NNW 5.8 mph - N/A   Scattered Clouds
5:00 PM 87.8 °F 92.6 °F 69.8 °F 55% 29.74 in 6.2 mi NW 4.6 mph - N/A   Scattered Clouds
5:30 PM 87.8 °F 92.6 °F 69.8 °F 55% 29.77 in 6.2 mi NNW 3.5 mph - N/A   Scattered Clouds
6:00 PM 87.8 °F 92.6 °F 69.8 °F 55% 29.77 in 6.2 mi NNW 5.8 mph - N/A   Scattered Clouds
6:30 PM 86.0 °F 90.4 °F 69.8 °F 58% 29.77 in 6.2 mi NNW 3.5 mph - N/A   Scattered Clouds
7:00 PM 86.0 °F 90.4 °F 69.8 °F 58% 29.77 in 5.6 mi NNW 4.6 mph - N/A   Scattered Clouds
7:30 PM 86.0 °F 91.8 °F 71.6 °F 62% 29.77 in 5.6 mi NNW 2.3 mph - N/A   Scattered Clouds
8:00 PM 86.0 °F 91.8 °F 71.6 °F 62% 29.77 in 5.6 mi NNW 2.3 mph - N/A   Scattered Clouds
8:30 PM 84.2 °F 89.6 °F 71.6 °F 66% 29.77 in 5.6 mi NNW 2.3 mph - N/A   Scattered Clouds
9:00 PM 84.2 °F 90.9 °F 73.4 °F 70% 29.80 in 5.6 mi WNW 3.5 mph - N/A   Partly Cloudy
9:30 PM 82.4 °F 88.2 °F 73.4 °F 74% 29.80 in 5.6 mi WNW 3.5 mph - N/A   Partly Cloudy
10:00 PM 84.2 °F 89.6 °F 71.6 °F 66% 29.80 in 5.6 mi WSW 4.6 mph - N/A   Partly Cloudy
11:00 PM 84.2 °F 89.6 °F 71.6 °F 66% 29.80 in 5.6 mi WSW 4.6 mph - N/A   Partly Cloudy